This is the latest recevied weather packets stored in our database for station/object KQ4OSL. If no packets are shown the sender has not sent any weather packets the latest 10 day(s).
| Time | Temp. | Humidity | Pressure | Rain* | Wind** | Luminosity | Snow |
|---|---|---|---|---|---|---|---|
| 1777586113 | 20° C | 62% | 1013.8 hPa | 0 mm | - | 114 W/m² | - |
| 1777585812 | 20° C | 59% | 1013.4 hPa | 0 mm | - | 135 W/m² | - |
| 1777585512 | 20° C | 58% | 1013.7 hPa | 0 mm | - | 131 W/m² | - |
| 1777585208 | 20.56° C | 61% | 1013.4 hPa | 0 mm | - | 118 W/m² | - |
| 1777584903 | 20.56° C | 60% | 1013.4 hPa | 0 mm | - | 153 W/m² | - |
| 1777584601 | 20.56° C | 60% | 1013.2 hPa | 0 mm | - | 143 W/m² | - |
| 1777584298 | 20.56° C | 57% | 1013.4 hPa | 0 mm | - | 201 W/m² | - |
| 1777583993 | 21.11° C | 58% | 1013.1 hPa | 0 mm | - | 274 W/m² | - |
| 1777583693 | 21.11° C | 57% | 1013.3 hPa | 0 mm | - | 273 W/m² | - |
| 1777583392 | 21.11° C | 57% | 1013.2 hPa | 0 mm | - | 257 W/m² | - |
| 1777583091 | 20.56° C | 56% | 1013.2 hPa | 0 mm | - | 287 W/m² | - |
| 1777582789 | 21.67° C | 54% | 1013.3 hPa | 0 mm | - | 341 W/m² | - |
| 1777582484 | 21.67° C | 56% | 1013.5 hPa | 0 mm | - | 408 W/m² | - |
| 1777582179 | 21.67° C | 58% | 1013.3 hPa | 0 mm | - | 400 W/m² | - |
| 1777581878 | 21.11° C | 57% | 1013.5 hPa | 0 mm | - | 443 W/m² | - |
| 1777581573 | 21.11° C | 57% | 1013.4 hPa | 0 mm | - | 411 W/m² | - |
| 1777581268 | 21.11° C | 57% | 1013.4 hPa | 0 mm | - | 473 W/m² | - |
| 1777580962 | 21.11° C | 58% | 1013.7 hPa | 0 mm | - | 244 W/m² | - |
| 1777580657 | 21.11° C | 60% | 1013.7 hPa | 0 mm | - | 453 W/m² | - |
| 1777580352 | 21.11° C | 58% | 1013.9 hPa | 0 mm | - | 475 W/m² | - |
| 1777580049 | 21.11° C | 59% | 1014.1 hPa | 0 mm | - | 511 W/m² | - |
| 1777579745 | 21.11° C | 59% | 1014 hPa | 0 mm | - | 484 W/m² | - |
| 1777579443 | 20.56° C | 61% | 1014 hPa | 0 mm | - | 482 W/m² | - |
| 1777579139 | 20.56° C | 59% | 1014.1 hPa | 0 mm | - | 395 W/m² | - |
| 1777578839 | 20.56° C | 58% | 1014.2 hPa | 0 mm | - | 437 W/m² | - |
* Rain latest hour (hover to see other rain measurements)
** Current wind speed in m/s (hover to see current wind gust speed)